CAPE
0 0 0 0 0 0 0 0 0 0 0 0 0 0 0 0 0 0 0 0 0 1 3 2 1 4 2 5 6 7 5 5 2 1 0 0 24 314 577 1085 1688 1944 2040
0 0 0 0 0 0 0 0 0 0 0 0 0 0 0 0 0 0 0 0 0 0 0 4 5 8 6 7 9 5 9 6 10 12 6 0 0 24 433 1010 1331 1800 1970
0 0 0 0 0 0 0 0 0 0 0 0 0 0 0 0 0 0 0 0 0 0 1 4 7 9 5 10 6 5 8 16 13 17 11 10 0 0 30 396 1254 1637 1644
0 0 0 0 0 0 0 0 0 0 0 0 0 0 0 0 0 0 0 0 0 0 0 4 6 10 7 6 10 8 8 13 12 12 2 11 25 19 5 0 192 532 1170
0 0 0 0 0 0 0 0 0 0 0 0 0 0 0 0 0 0 0 0 0 0 0 4 9 9 7 3 2 7 8 12 15 11 12 16 21 11 27 16 0 94 576
0 0 0 0 0 0 0 0 0 0 0 0 0 0 0 0 0 0 0 0 0 0 1 3 7 10 8 12 15 12 7 8 5 22 21 23 17 14 19 26 19 20 443
0 0 0 0 0 0 0 0 0 0 0 0 0 0 0 0 0 0 0 0 0 0 3 7 8 9 7 8 18 12 9 8 14 13 17 18 23 21 23 31 34 38 8
0 0 0 0 0 0 0 0 0 0 0 0 0 0 0 0 0 0 1 2 3 4 5 8 10 7 5 5 15 19 13 5 15 6 17 15 20 19 15 24 31 21 48
0 0 0 0 0 0 0 0 0 0 0 0 0 0 0 1 2 4 6 7 9 7 6 11 10 5 4 3 8 21 20 18 18 20 17 15 25 27 21 10 28 38 5
0 0 0 0 0 0 0 0 0 0 0 0 0 0 0 1 3 4 6 10 12 14 12 10 9 5 4 14 16 19 22 23 20 14 27 19 9 13 23 31 16 13 26
0 0 0 0 0 0 0 0 0 0 0 0 0 0 2 2 3 4 6 9 9 9 11 9 8 5 3 7 21 8 16 21 21 18 26 21 23 18 19 25 26 23 9
0 0 0 0 0 0 0 0 0 0 0 0 0 1 3 4 4 7 5 7 9 12 11 10 9 6 6 15 17 17 23 18 25 20 26 20 7 18 19 5 8 22 17
0 0 0 0 0 0 0 0 0 0 0 0 0 1 3 3 5 8 9 8 7 9 9 9 7 4 6 6 19 15 14 20 25 28 33 20 11 19 17 13 22 23 24
0 0 5 3 0 0 0 0 0 0 0 0 0 3 4 7 7 8 9 10 9 8 7 9 4 6 7 9 6 12 23 22 16 27 31 27 28 30 25 25 18 18 18
0 0 2 5 13 2 0 0 0 0 0 0 0 2 5 7 8 7 9 8 10 8 6 7 9 8 15 4 5 19 25 27 23 26 23 31 21 26 18 28 25 19 27
0 0 1 1 3 0 0 0 0 0 0 0 1 3 4 5 7 8 6 5 5 5 7 7 7 22 6 13 4 11 28 19 26 26 28 31 30 27 10 1 2 10 21
3 1 3 3 0 0 0 0 0 0 0 1 1 4 5 6 6 6 7 6 6 7 5 6 10 16 16 14 6 9 24 26 26 28 32 26 15 27 31 17 9 10 6
0 1 5 4 0 0 0 0 0 0 0 1 2 4 6 5 7 7 8 6 8 8 7 9 10 15 11 6 9 11 18 28 27 25 27 34 31 31 25 19 25 16 19
0 2 6 0 0 0 0 0 0 0 0 2 3 3 4 6 6 5 5 7 7 9 9 7 9 14 18 8 7 14 29 26 19 22 24 28 37 13 22 39 29 16 16
1 1 0 0 0 0 0 0 0 0 0 1 3 3 5 5 5 8 6 6 7 5 7 8 14 14 18 11 9 14 42 37 35 17 24 9 21 24 22 27 28 27 15
0 0 0 0 0 0 0 0 0 0 0 1 1 2 3 3 4 5 8 6 7 9 11 12 17 16 29 29 12 15 36 39 33 38 28 31 15 18 15 17 34 32 34
0 0 0 0 0 0 0 0 0 0 0 0 0 0 0 1 3 6 6 7 6 8 11 15 36 46 48 12 13 14 13 12 26 26 28 27 23 19 13 17 21 28 19
0 0 0 0 0 0 0 0 0 0 0 0 0 0 0 1 4 9 8 9 9 12 26 23 30 43 50 48 13 13 11 9 21 18 12 12 12 14 14 13 13 18 29
0 0 0 0 0 0 0 0 0 0 0 0 0 0 0 0 3 10 11 14 15 15 20 33 41 42 51 45 48 46 40 13 14 11 16 11 16 5 10 16 18 27 23
0 0 0 0 0 0 0 0 0 0 0 0 0 0 0 1 2 10 14 12 17 14 17 30 36 47 49 48 22 18 34 35 19 14 18 12 10 7 7 10 11 18 9
0 0 0 0 0 0 0 0 0 0 0 0 0 0 1 2 4 7 14 1 0 0 1 1 20 38 20 14 15 15 13 12 9 24 23 13 11 9 7 9 7 9 5
CIN
-0 -0 -0 -0 -0 -0 -0 -0 -0 -0 -0 -0 -0 -0 -0 -0 -0 -0 -0 -0 -0 -0 -0 -0 -0 -0 -0 -0 -0 -0 -0 -0 -0 -0 -0 -0 -355 -261 -157 -2 -0 -0 -0
-0 -0 -0 -0 -0 -0 -0 -0 -0 -0 -0 -0 -0 -0 -0 -0 -0 -0 -0 -0 -0 -0 -0 -0 -0 -0 -0 -0 -0 -0 -0 -0 -0 -0 -0 -0 -0 -289 -133 -0 -0 -0 -0
-0 -0 -0 -0 -0 -0 -0 -0 -0 -0 -0 -0 -0 -0 -0 -0 -0 -0 -0 -0 -0 -0 -0 -0 -0 -0 -0 -0 -0 -0 -0 -0 -0 -0 -0 -0 -0 -0 -208 -106 -1 -0 -0
-0 -0 -0 -0 -0 -0 -0 -0 -0 -0 -0 -0 -0 -0 -0 -0 -0 -0 -0 -0 -0 -0 -0 -0 -0 -0 -0 -0 -0 -0 -0 -0 -0 -0 -0 -0 -0 -0 -0 -0 -171 -36 -2
-0 -0 -0 -0 -0 -0 -0 -0 -0 -0 -0 -0 -0 -0 -0 -0 -0 -0 -0 -0 -0 -0 -0 -0 -0 -0 -0 -0 -0 -0 -0 -0 -0 -0 -0 -0 -0 -1 -0 -0 -0 -95 -22
-0 -0 -0 -0 -0 -0 -0 -0 -0 -0 -0 -0 -0 -0 -0 -0 -0 -0 -0 -0 -0 -0 -0 -0 -0 -0 -0 -0 -0 -1 -0 -0 -0 -0 -0 -0 -0 -0 -0 -0 -0 -141 -44
-0 -0 -0 -0 -0 -0 -0 -0 -0 -0 -0 -0 -0 -0 -0 -0 -0 -0 -0 -0 -0 -0 -0 -0 -0 -0 -0 -0 -0 -0 -0 -0 -0 -0 -0 -0 -0 -0 -0 -0 -0 -0 -0
-0 -0 -0 -0 -0 -0 -0 -0 -0 -0 -0 -0 -0 -0 -0 -0 -0 -0 -0 -0 -0 -0 -0 -0 -0 -0 -0 -0 -0 -0 -0 -0 -0 -0 -0 -1 -0 -0 -0 -0 -0 -0 -0
-0 -0 -0 -0 -0 -0 -0 -0 -0 -0 -0 -0 -0 -0 -0 -0 -0 -0 -0 -0 -0 -0 -0 -0 -0 -0 -0 -0 -1 -0 -0 -0 -0 -0 -0 -0 -0 -0 -0 -0 -0 -0 -0
-0 -0 -0 -0 -0 -0 -0 -0 -0 -0 -0 -0 -0 -0 -0 -0 -0 -0 -0 -0 -0 -0 -0 -0 -0 -0 -0 -0 -0 -0 -0 -0 -0 -0 -0 -0 -0 -0 -0 -0 -0 -0 -1
-0 -0 -0 -0 -0 -0 -0 -0 -0 -0 -0 -0 -0 -0 -0 -0 -0 -0 -0 -0 -0 -0 -0 -0 -0 -0 -0 -0 -0 -0 -0 -0 -0 -0 -0 -0 -0 -0 -0 -0 -0 -0 -0
-0 -0 -0 -0 -0 -0 -0 -0 -0 -0 -0 -0 -0 -0 -0 -0 -0 -0 -0 -0 -0 -0 -0 -0 -0 -0 -0 -0 -0 -0 -0 -0 -0 -0 -0 -0 -0 -0 -0 -0 -0 -0 -0
-0 -0 -0 -0 -0 -0 -0 -0 -0 -0 -0 -0 -0 -0 -0 -0 -0 -0 -0 -0 -0 -0 -0 -0 -0 -0 -0 -0 -0 -0 -0 -0 -0 -0 -0 -0 -0 -0 -0 -0 -0 -0 -0
-0 -0 -0 -0 -0 -0 -0 -0 -0 -0 -0 -0 -0 -0 -0 -0 -0 -0 -0 -0 -0 -0 -0 -0 -0 -0 -0 -0 -0 -0 -0 -0 -0 -0 -0 -0 -0 -0 -0 -0 -0 -0 -0
-0 -0 -0 -0 -0 -0 -0 -0 -0 -0 -0 -0 -0 -0 -0 -0 -0 -0 -0 -0 -0 -0 -0 -0 -0 -0 -0 -0 -0 -0 -0 -0 -0 -0 -0 -0 -0 -0 -1 -0 -0 -0 -0
-0 -0 -0 -0 -0 -0 -0 -0 -0 -0 -0 -0 -0 -0 -0 -0 -0 -0 -0 -0 -0 -0 -0 -0 -0 -0 -0 -0 -0 -0 -0 -0 -0 -0 -0 -0 -0 -0 -0 -4 -0 -0 -0
-0 -0 -0 -0 -0 -0 -0 -0 -0 -0 -0 -0 -0 -0 -0 -0 -0 -0 -0 -0 -0 -0 -0 -0 -0 -0 -0 -0 -0 -0 -0 -0 -0 -0 -0 -0 -0 -0 -0 -0 -0 -0 -0
-0 -0 -0 -0 -0 -0 -0 -0 -0 -0 -0 -0 -0 -0 -0 -0 -0 -0 -0 -0 -0 -0 -0 -0 -0 -0 -0 -0 -0 -0 -0 -0 -0 -0 -0 -0 -0 -0 -0 -0 -0 -0 -0
-0 -0 -0 -0 -0 -0 -0 -0 -0 -0 -0 -0 -0 -0 -0 -0 -0 -0 -0 -0 -0 -0 -0 -0 -0 -0 -0 -0 -0 -0 -0 -0 -0 -0 -0 -0 -0 -0 -0 -0 -0 -0 -0
-0 -0 -0 -0 -0 -0 -0 -0 -0 -0 -0 -0 -0 -0 -0 -0 -0 -0 -0 -0 -0 -0 -0 -0 -0 -0 -0 -0 -0 -0 -0 -0 -0 -0 -0 -0 -0 -0 -0 -0 -0 -0 -0
-0 -0 -0 -0 -0 -0 -0 -0 -0 -0 -0 -0 -0 -0 -0 -0 -0 -0 -0 -0 -0 -0 -0 -0 -0 -0 -0 -0 -0 -0 -0 -0 -0 -0 -0 -0 -0 -0 -0 -0 -0 -0 -0
-0 -0 -0 -0 -0 -0 -0 -0 -0 -0 -0 -0 -0 -0 -0 -0 -0 -0 -0 -0 -0 -0 -0 -0 -0 -0 -0 -0 -0 -0 -0 -0 -0 -0 -0 -0 -0 -0 -0 -0 -0 -0 -0
-0 -0 -0 -0 -0 -0 -0 -0 -0 -0 -0 -0 -0 -0 -0 -0 -0 -0 -0 -0 -0 -0 -0 -0 -0 -0 -0 -0 -0 -0 -0 -0 -0 -0 -0 -0 -0 -0 -0 -0 -0 -0 -0
-0 -0 -0 -0 -0 -0 -0 -0 -0 -0 -0 -0 -0 -0 -0 -0 -0 -0 -0 -0 -0 -0 -0 -0 -0 -0 -0 -0 -0 -0 -0 -0 -0 -0 -0 -0 -0 -0 -0 -0 -0 -0 -0
-0 -0 -0 -0 -0 -0 -0 -0 -0 -0 -0 -0 -0 -0 -0 -0 -0 -0 -0 -0 -0 -0 -0 -0 -0 -0 -0 -0 -0 -0 -0 -0 -0 -0 -0 -0 -0 -0 -0 -0 -0 -0 -0
-0 -0 -0 -0 -0 -0 -0 -0 -0 -0 -0 -0 -0 -0 -0 -0 -0 -0 -0 -3 -0 -0 -0 -0 -0 -0 -0 -0 -0 -0 -0 -0 -0 -0 -0 -0 -0 -0 -0 -0 -0 -0 -0
Wind_Speed
15 13 9 7 7 5 5 4 4 4 4 3 4 4 5 5 5 5 8 8 9 10 10 8 9 9 9 11 11 10 12 11 12 12 12 11 12 14 14 13 13 15 16
17 13 11 9 7 6 5 4 4 4 4 4 3 4 5 4 4 4 7 7 10 10 10 11 10 11 9 11 11 11 10 9 10 9 12 9 9 11 11 13 13 16 12
20 16 14 11 9 7 5 4 4 4 5 6 4 4 4 3 4 7 6 8 9 9 10 10 10 10 10 9 11 10 11 9 9 9 5 8 7 15 10 15 9 11 10
18 17 14 11 8 7 6 5 4 4 5 6 6 7 6 7 7 6 6 8 9 10 10 10 10 11 9 10 9 10 9 9 9 8 8 11 12 6 11 11 14 11 9
18 16 13 12 8 6 6 5 5 5 5 6 7 6 7 7 7 7 10 10 9 9 10 10 12 10 9 10 11 12 10 9 9 9 9 10 8 11 14 17 13 12 8
16 14 11 9 9 7 6 5 4 6 5 5 6 6 7 8 7 8 8 8 9 8 10 12 12 12 12 11 9 10 12 11 12 10 10 9 8 8 11 15 16 18 12
14 13 11 10 9 7 6 5 5 6 5 5 5 6 7 8 8 9 8 11 9 9 10 13 13 12 13 12 11 11 11 12 12 12 9 9 10 10 11 12 14 16 13
14 14 14 11 8 6 6 5 5 4 5 5 6 6 7 6 7 9 9 8 9 10 13 12 13 14 14 13 11 9 10 12 11 16 12 10 10 9 10 11 12 15 15
14 14 12 9 9 7 6 5 4 5 5 5 5 6 6 7 8 9 9 9 11 11 13 14 13 13 14 15 14 9 11 11 11 12 12 11 10 10 11 11 11 12 17
14 14 12 11 9 7 8 6 5 5 5 5 5 5 6 7 7 8 9 11 12 13 13 14 14 14 14 14 13 11 11 12 10 9 13 13 13 13 12 12 10 12 16
14 13 11 10 8 7 6 5 5 5 4 5 5 5 6 7 7 7 9 11 13 13 13 13 14 14 14 13 13 14 13 14 13 14 15 16 17 12 13 13 13 12 13
14 14 12 9 7 6 5 5 4 4 5 5 6 6 8 9 9 9 10 10 12 13 13 14 14 14 14 14 13 14 13 15 16 17 17 17 14 16 15 14 18 16 17
15 14 8 7 6 5 5 4 5 5 6 6 6 6 7 8 9 10 11 11 11 12 13 13 14 15 14 15 14 13 15 17 18 18 19 19 19 17 13 15 14 14 15
16 15 9 7 3 4 4 5 5 5 5 6 6 7 7 9 8 10 11 12 11 12 12 13 14 13 14 14 13 16 18 18 18 19 19 19 18 18 16 13 15 16 16
17 15 11 7 5 4 3 4 4 5 5 7 7 7 8 10 11 11 11 11 11 12 13 13 13 13 11 10 16 16 17 19 20 19 19 17 19 26 21 14 13 16 15
16 15 13 11 7 6 4 4 5 5 6 7 7 9 10 11 10 11 12 11 12 12 13 13 13 12 10 15 23 22 18 20 18 18 19 18 22 19 20 22 20 17 17
15 14 13 10 7 6 4 6 5 5 6 5 6 8 9 9 11 12 13 12 12 12 13 13 13 14 14 21 27 29 18 17 17 18 18 18 15 20 17 19 23 23 26
16 14 11 8 7 6 7 5 5 5 5 6 7 8 9 10 10 12 12 13 12 12 12 13 13 13 12 23 26 30 20 17 17 18 19 19 18 18 20 23 23 23 19
15 12 10 8 7 7 6 6 5 5 6 7 7 8 9 9 10 12 12 13 12 12 13 13 15 15 14 24 28 27 19 17 19 18 17 17 18 25 32 23 23 24 20
14 13 11 9 8 7 6 5 6 7 6 6 6 7 7 9 10 12 12 12 12 12 11 14 14 16 16 23 28 27 14 16 15 17 16 23 23 32 32 21 20 21 20
15 12 10 9 8 7 6 6 7 7 6 6 6 7 8 8 9 10 11 12 12 12 13 14 13 14 15 16 28 30 15 14 15 14 14 14 32 35 33 29 17 21 26
14 12 10 10 8 7 6 7 7 7 6 6 7 8 9 7 8 11 11 12 13 13 14 15 12 11 13 22 25 30 29 27 16 16 15 17 34 33 33 25 33 32 24
12 11 11 10 9 8 8 8 7 6 6 7 8 8 10 8 8 9 11 9 12 11 11 11 12 12 12 12 28 29 29 27 17 15 23 32 33 32 22 32 33 25 16
11 11 11 11 10 9 8 8 7 6 7 7 8 7 8 9 9 7 8 9 10 11 11 11 11 12 12 13 14 14 14 21 18 21 16 18 21 20 20 19 19 15 15
10 10 10 10 10 8 8 8 8 7 7 7 8 8 7 9 8 8 6 7 8 9 10 10 10 12 12 14 23 22 15 14 17 17 13 14 15 17 17 17 18 16 16
11 11 10 10 10 9 8 8 8 8 7 7 7 7 7 7 8 8 7 9 8 8 12 17 13 11 20 25 28 29 27 27 27 13 13 14 15 16 17 18 18 18 20
Wind_Direction
188 166 177 179 158 143 129 94 77 34 351 2 358 349 353 340 347 342 356 345 347 339 330 331 332 335 337 334 325 327 323 324 322 305 290 285 271 256 249 249 251 256 251
183 175 182 182 188 140 136 129 83 55 18 9 349 332 322 334 328 336 336 348 343 338 332 338 334 343 334 326 333 335 322 317 317 323 307 289 296 259 247 232 235 242 248
182 184 191 184 176 154 141 120 86 59 45 359 349 347 313 319 354 354 341 355 336 336 332 333 333 333 326 325 328 325 318 317 313 301 293 304 315 333 304 319 271 246 241
181 188 186 179 177 146 137 120 89 48 46 16 1 355 350 342 349 327 341 324 336 334 336 336 332 331 324 322 325 325 318 308 303 300 281 279 300 303 309 302 320 305 288
180 187 182 174 162 156 131 121 117 75 53 22 5 348 358 346 335 334 335 327 338 334 335 337 334 329 325 320 318 316 315 308 302 298 301 296 280 277 279 286 288 280 264
176 170 175 154 154 161 140 123 101 85 53 22 12 3 352 339 334 333 320 339 326 334 339 342 330 331 328 325 317 311 307 305 302 293 286 284 284 287 290 294 297 299 299
168 169 166 188 165 148 129 124 90 87 59 25 10 1 349 327 329 330 339 331 330 333 333 336 336 328 321 316 312 311 305 300 298 299 296 295 283 280 281 277 281 286 285
164 174 182 180 159 162 123 113 87 73 46 19 6 1 350 343 331 348 332 320 330 327 335 332 326 320 315 312 309 309 304 303 302 299 295 294 287 287 287 279 285 281 279
174 184 170 170 163 148 118 100 82 63 48 18 9 360 350 352 349 338 328 335 326 330 329 329 324 320 317 316 314 305 301 303 302 300 299 297 290 287 282 279 286 275 278
174 176 167 171 165 146 121 104 72 50 37 20 13 5 360 349 350 341 340 329 329 325 330 328 326 324 319 317 314 312 308 309 301 305 304 304 294 293 286 286 266 269 277
175 166 172 172 151 138 114 106 79 54 35 23 1 359 358 351 342 348 348 334 326 329 329 327 327 322 320 320 318 314 312 313 311 308 304 303 299 294 289 285 284 270 267
173 168 161 157 151 125 110 96 81 51 27 20 8 7 1 352 346 347 347 337 324 331 331 328 326 324 325 322 321 316 315 320 313 307 300 295 296 292 286 285 284 283 280
173 158 112 133 133 114 95 69 51 33 17 9 9 13 2 349 346 345 338 333 330 336 328 329 327 330 327 327 321 334 328 319 311 307 301 299 296 287 282 280 283 280 276
173 155 115 111 111 103 83 61 47 21 358 12 9 7 353 348 349 349 333 328 340 331 330 334 333 330 334 324 344 336 324 315 310 303 298 293 288 290 289 291 290 286 285
171 151 146 147 134 113 78 68 40 14 8 22 5 2 359 356 356 340 329 342 341 339 340 341 331 334 332 344 345 334 323 316 309 304 301 298 301 296 285 282 284 296 288
170 151 153 155 152 148 122 90 54 23 18 20 5 7 2 355 350 334 336 353 347 341 344 337 329 335 334 349 345 337 325 317 313 311 309 308 303 296 301 290 280 283 288
163 149 153 157 142 123 106 65 46 44 25 23 7 8 4 348 352 339 342 349 349 345 343 337 341 339 337 350 345 338 322 321 317 319 316 311 310 311 310 312 308 293 281
145 144 145 141 149 122 97 103 73 57 28 26 17 21 359 352 347 351 342 351 346 350 346 338 344 342 339 351 344 340 329 324 326 323 316 312 318 318 331 319 307 298 288
127 128 141 141 129 109 101 97 86 59 40 27 18 16 2 347 359 357 348 346 348 347 347 350 344 343 344 351 347 345 335 329 332 322 321 325 321 331 326 312 305 303 298
126 139 142 131 118 106 104 99 74 57 37 24 19 21 2 359 4 352 355 344 355 352 349 346 349 348 350 348 349 349 336 334 330 326 329 331 333 328 324 320 313 305 309
129 137 128 113 105 103 112 85 74 52 33 23 24 29 12 7 14 356 357 352 355 354 354 349 349 350 352 350 350 349 341 340 334 332 332 331 334 332 329 328 318 315 309
137 129 119 109 102 98 84 76 57 47 34 27 29 32 24 16 8 11 5 360 2 358 357 353 349 351 349 354 350 350 350 346 339 336 329 330 335 336 335 332 327 324 314
127 124 119 113 95 79 73 74 46 41 38 40 31 32 32 18 22 20 12 15 7 2 357 354 350 346 350 353 350 348 349 348 343 337 332 336 339 339 336 337 336 332 327
127 125 125 111 99 91 74 60 50 30 49 45 36 30 45 5 25 31 15 20 14 6 2 355 351 344 350 353 350 345 343 347 348 338 335 335 338 339 338 340 339 334 333
125 120 114 110 104 92 76 62 51 34 56 50 47 19 30 23 17 35 31 25 35 20 5 2 352 346 349 351 351 352 345 350 348 337 341 343 347 348 344 342 342 336 336
126 119 120 113 104 93 77 62 51 48 38 55 46 31 27 21 17 12 15 59 37 22 18 20 7 347 350 352 354 355 351 356 354 347 352 351 348 347 345 343 340 340 341